sat.trackr.live / text

‹ back to catalog

STARLINK-31962

NORAD 59936 · 2024-106Q

PAYLOAD ACTIVE UNKNOWN

§ Identity

Operator
Country
US
Launch date
2024-06-01
Launch site
AFETR
Launch vehicle
Mass (kg)
RCS (m²)

Purposes: comms

External: N2YO · Heavens-Above · Gunter

§ Orbital elements

Epoch: 2026-05-25T00:34:48.524736Z

Period
94.27 min
Inclination
43.0006°
Eccentricity
0.0001020
Mean motion
15.27562260 rev/d
Perigee alt
482.4 km
Apogee alt
483.8 km
Semi-major
6,861.2 km
B*
1.5545e-4
RAAN
261.7274°
Arg perigee
282.8770°
Mean anomaly
77.1968°
Rev number
11,219

§ Raw data

STARLINK-319621 59936U 24106Q   26145.02417274  .00004016  00000+0  15545-3 0  99932 59936  43.0006 261.7274 0001020 282.8770  77.1968 15.27562260112191

JSON: /api/v1/satellites/59936 · /tle

For live sub-satellite position, see the globe view (requires WebGL).

§ Visibility from observer

Set your observer location to see the next 7 days of passes ≥ 10°. The values pass through the URL so the page stays shareable.

No JS? Fill the form by hand. The geolocation button needs JavaScript.